Location: Praha
(50.0830°N, 14.4670°E)
Time: 11:35:02
(UTC+02:00)

ISS - Pass Details

Date: 04 May 2025
Orbit: 416 x 419 km, 51.6° (Epoch: 18 May)

Event Time Altitude Azimuth Distance (km) Brightness Sun altitude
Exits shadow 03:01:32 34° 286° (WNW) 714 -2.8 -18.6°
Maximum altitude 03:02:48 65° 357° (N) 463 -3.4 -18.5°
Drops below altitude 10° 03:06:08 10° 80° (E) 1,496 -0.4 -18.2°
Sets 03:08:15 0° 84° (E) 2,360 0.6 -18.1°
